2020-102C (47298 NORAD) Tracking and Keplerian Element Data

This shows tracking and keplerian element data for the satellite.

Feedback or suggestion? Click here.




ElementValue
Catalog47298
Name2020-102C
Epoch Orbit1059
Epoch Day60.81647828
Epoch Year2021
RAAN160.1721
Inclination97.3896
Eccentricity0.0002187
Argument of Perigee95.542
Mean Anonmoly18.3476
Mean Motion15.23582663
Decay Rate2.465E-05
L11 47298U 20102C 21060.81647828 .00002465 00000-0 10598-3 0 9991
L22 47298 97.3896 160.1721 0002187 95.5420 18.3476 15.23582663 10590

Live tracking and technical data element details for 2020-102C (NORAD 47298). 2020-102C can be tracked NOW for your location showing map with azimuth and elevation plus other details from your city location.

Track the satellite on the map from your city or location and see movement details for azimuth, elevation, latitude, longitude, range, height, and movement on the map or in text.







IsCatalogInMostPopularTable: catalog: 47298, numindb: 25
Update: records affected: 1



GetName: 47298 2020-102C

Hit Count: updated at: Tue, 02 Mar 2021 13:46:38 GMT